Weather History for KHYA - October, 2012

Change the Weather History Date:

Sunday, October 28, 2012

  Actual Average Record
Temperature  
Mean Temperature 55 °F -  
Max Temperature 57 °F 58 °F 76 °F (1977)
Min Temperature 53 °F 39 °F 24 °F (1936)
Degree Days  
Heating Degree Days 10    
Growing Degree Days 5 (Base 50)    
Moisture  
Dew Point 51 °F    
Average Humidity 86    
Maximum Humidity 97    
Minimum Humidity 77    
Precipitation  
Precipitation 0.02 in - - ()
Sea Level Pressure  
Sea Level Pressure 29.85 in    
Wind  
Wind Speed 12 mph (NE)    
Max Wind Speed 20 mph    
Max Gust Speed 29 mph    
Visibility 9 miles    
Events Rain    
Averages and records for this station are not official NWS values.
T = Trace of Precipitation, MM = Missing Value Source: NWS Daily Summary

Daily Weather History Graph

Daily Weather History Graph

Search for Another Location

Airport or City:

Trip Planner

Search our weather history database for the weather conditions in past years. The results will help you decide how hot, cold, wet, or windy it might be!

Date:

Astronomy

Oct. 28, 2012 Rise Set
Actual Time 7:08 AM EDT 5:40 PM EDT
Civil Twilight 6:40 AM EDT 6:08 PM EDT
Nautical Twilight 6:07 AM EDT 6:41 PM EDT
Astronomical Twilight 5:35 AM EDT 7:13 PM EDT
Moon 4:56 PM EDT (10/28) 5:58 AM EDT (10/28)
Length of Visible Light 11h 28m
Length of Day
10h 31m
Waxing Gibbous, 99% of the Moon is Illuminated
Oct 28
Waxing Gibbous
Oct 29
Full
Nov 6
Last Quarter
Nov 13
New
Nov 20
First Quarter

Hourly Weather History & Observations

Time (EDT) Temp. Dew Point Humidity Pressure Visibility Wind Dir Wind Speed Gust Speed Precip Events Conditions
12:25 AM 55.4 °F 51.8 °F 88% 29.96 in 10.0 mi ENE 8.1 mph - N/A   Overcast
12:56 AM 55.0 °F 51.1 °F 86% 29.97 in 10.0 mi ENE 4.6 mph - N/A   Overcast
1:56 AM 55.0 °F 50.0 °F 83% 29.95 in 10.0 mi ENE 10.4 mph - N/A   Overcast
3:56 AM 55.9 °F 50.0 °F 80% 29.91 in 10.0 mi ENE 9.2 mph - N/A   Overcast
4:56 AM 55.9 °F 48.9 °F 77% 29.91 in 10.0 mi East 9.2 mph - N/A   Overcast
5:56 AM 55.9 °F 50.0 °F 80% 29.91 in 10.0 mi ENE 6.9 mph 16.1 mph N/A   Overcast
6:56 AM 55.9 °F 50.0 °F 80% 29.91 in 10.0 mi ENE 12.7 mph 17.3 mph N/A   Overcast
7:56 AM 55.9 °F 50.0 °F 80% 29.92 in 10.0 mi ENE 10.4 mph 19.6 mph N/A   Overcast
8:56 AM 55.9 °F 52.0 °F 87% 29.92 in 10.0 mi NE 13.8 mph 18.4 mph N/A   Overcast
9:03 AM 55.4 °F 51.8 °F 88% 29.92 in 10.0 mi NE 13.8 mph - N/A   Overcast
9:40 AM 57.2 °F 51.8 °F 82% 29.92 in 10.0 mi ENE 12.7 mph - N/A   Overcast
9:56 AM 57.0 °F 51.1 °F 81% 29.93 in 10.0 mi NE 10.4 mph 18.4 mph N/A   Overcast
10:27 AM 57.2 °F 51.8 °F 82% 29.90 in 10.0 mi NE 17.3 mph 24.2 mph N/A   Mostly Cloudy
10:56 AM 57.9 °F 51.1 °F 78% 29.91 in 10.0 mi NE 12.7 mph - N/A   Mostly Cloudy
11:36 AM 57.2 °F 51.8 °F 82% 29.91 in 10.0 mi ENE 16.1 mph 23.0 mph N/A   Overcast
11:56 AM 57.9 °F 51.1 °F 78% 29.91 in 10.0 mi ENE 12.7 mph 24.2 mph N/A   Overcast
12:53 PM 55.4 °F 51.8 °F 88% 29.86 in 7.0 mi NE 12.7 mph 21.9 mph N/A   Overcast
1:56 PM 57.9 °F 52.0 °F 81% 29.84 in 10.0 mi NE 18.4 mph 28.8 mph N/A   Overcast
2:56 PM 57.0 °F 52.0 °F 83% 29.81 in 10.0 mi NE 17.3 mph 26.5 mph N/A   Overcast
3:56 PM 57.0 °F 52.0 °F 83% 29.78 in 10.0 mi NE 18.4 mph 26.5 mph N/A   Overcast
4:56 PM 55.9 °F 50.0 °F 80% 29.80 in 10.0 mi NE 18.4 mph 27.6 mph N/A   Overcast
5:56 PM 54.0 °F 51.1 °F 90% 29.81 in 9.0 mi ENE 13.8 mph 27.6 mph 0.00 in Rain Light Rain
6:56 PM 53.1 °F 50.0 °F 89% 29.83 in 10.0 mi NE 13.8 mph - 0.00 in Rain Light Rain
7:56 PM 53.1 °F 51.1 °F 93% 29.80 in 7.0 mi NE 15.0 mph 24.2 mph 0.00 in Rain Light Rain
8:56 PM 53.1 °F 52.0 °F 96% 29.76 in 4.0 mi NE 17.3 mph 25.3 mph 0.01 in Rain Light Rain
9:56 PM 53.1 °F 52.0 °F 96% 29.73 in 5.0 mi NE 17.3 mph 26.5 mph 0.01 in Rain Light Rain
10:29 PM 53.6 °F 51.8 °F 94% 29.70 in 10.0 mi ENE 15.0 mph 23.0 mph 0.00 in   Overcast
10:56 PM 54.0 °F 52.0 °F 93% 29.70 in 10.0 mi NE 19.6 mph 25.3 mph 0.00 in   Overcast
11:12 PM 53.6 °F 51.8 °F 94% 29.69 in 8.0 mi NE 11.5 mph 24.2 mph 0.00 in Rain Light Rain
11:56 PM 54.0 °F 53.1 °F 97% 29.66 in 10.0 mi ENE 13.8 mph 27.6 mph 0.00 in   Overcast